Wind_Speed
7 7 10 4 1 7 7 3 2 3 6 9 1 3 9 6 12 23 32 41 43 40 37 36 32 29 24 25 22 24 28 26
9 5 3 10 7 1 3 5 3 4 5 6 4 7 5 5 11 16 33 38 40 41 40 36 32 27 24 20 21 27 27 25
3 2 9 1 2 6 6 5 6 3 6 8 10 9 11 17 30 17 38 39 39 39 37 34 31 26 23 20 19 25 27 23
4 8 4 6 7 6 5 4 3 5 6 3 8 13 21 32 24 25 38 40 39 38 37 35 30 26 23 21 19 22 21 21
9 8 6 2 3 6 4 3 4 5 5 5 4 13 30 31 26 27 35 39 39 38 37 35 30 27 25 23 20 21 22 21
6 6 3 6 6 4 6 3 4 5 4 1 4 7 18 28 36 40 39 42 41 40 39 36 31 29 29 27 25 29 28 25
5 6 3 4 1 5 6 5 5 6 8 8 11 11 28 43 40 36 34 38 40 41 41 40 36 32 30 29 29 33 30 30
3 6 6 3 6 3 5 1 2 7 5 5 10 11 7 21 29 31 30 39 42 43 43 43 40 37 34 31 34 35 34 34
3 2 3 5 6 10 7 8 4 6 5 2 8 15 17 8 19 27 27 38 46 47 47 48 44 41 40 37 37 38 36 35
3 3 3 5 6 18 16 8 7 7 8 7 6 15 20 21 19 10 9 26 36 46 48 50 47 40 30 26 24 29 40 40
5 4 4 3 3 1 7 5 4 6 7 13 4 6 12 17 14 15 13 7 13 41 45 35 35 30 26 18 17 24 42 33
3 5 6 4 7 5 8 3 3 10 6 9 11 4 5 10 12 12 14 19 18 11 27 25 26 27 18 10 13 36 69 58
2 2 1 4 8 3 4 6 2 9 9 9 2 2 13 4 10 10 14 18 16 4 23 28 28 22 13 37 35 31 46 39
3 4 3 3 6 7 7 7 9 9 12 13 14 14 15 9 15 14 16 17 12 8 16 16 15 19 23 21 21 12 20 18
5 5 4 7 22 19 13 8 3 7 7 11 15 17 4 16 14 18 17 18 17 5 6 6 4 7 16 22 9 9 19 8
5 7 8 20 18 15 8 6 6 7 8 10 12 12 15 16 18 15 13 12 12 10 14 21 18 18 9 8 4 4 8 18
5 3 15 12 11 7 4 5 5 8 9 16 12 15 9 16 19 16 14 15 18 21 17 9 3 3 6 5 0 10 13 14
4 6 10 8 8 3 4 6 9 9 12 15 12 12 9 11 14 17 12 17 16 13 12 11 8 5 3 1 1 9 9 7
8 12 12 8 9 4 7 19 17 17 16 15 17 18 15 18 13 18 18 13 11 11 13 13 14 12 8 7 4 3 5 8
Wind_Direction
235 180 137 239 130 169 104 30 83 239 299 302 88 206 215 47 4 184 181 192 195 196 201 199 201 202 208 210 212 208 199 202
307 123 27 139 163 131 19 145 208 293 284 235 233 203 273 28 256 218 183 190 195 198 200 203 203 204 204 211 219 206 203 210
1 344 140 32 39 53 120 133 157 177 259 216 205 185 176 202 225 225 186 190 194 196 197 200 201 201 202 209 214 208 206 206
213 290 257 147 165 137 123 255 198 168 268 234 177 185 192 199 214 215 190 191 191 192 194 196 199 202 208 208 213 209 204 201
347 355 8 347 189 143 110 84 186 143 262 326 154 193 192 195 210 186 184 189 190 190 193 196 203 208 208 211 214 208 195 198
185 211 228 283 214 197 124 114 176 213 243 120 203 167 172 184 177 183 187 189 189 192 197 203 208 210 207 208 210 201 198 201
165 233 283 315 309 233 186 205 149 232 200 238 200 174 168 175 177 173 181 189 195 200 203 204 208 211 208 207 204 197 203 210
348 334 338 286 330 196 243 280 327 86 272 318 11 37 143 167 173 184 191 197 205 210 209 207 212 211 209 206 202 201 207 207
229 320 15 13 347 82 53 25 112 65 289 37 48 70 75 78 213 205 211 208 210 214 216 214 215 213 208 207 205 207 212 211
171 55 102 228 99 95 83 50 44 63 24 58 96 75 65 59 59 57 257 232 218 222 225 224 217 212 206 212 204 210 210 214
127 149 258 61 358 19 115 17 3 62 31 29 26 346 36 42 37 48 36 352 259 239 234 218 208 194 185 178 176 330 346 233
98 131 192 238 291 94 120 55 330 76 40 20 31 47 288 33 22 14 349 343 348 304 221 203 186 181 176 206 297 310 301 308
114 154 301 235 295 19 106 219 15 59 40 12 54 321 332 105 71 40 9 2 3 268 198 183 185 200 243 327 314 303 321 242
87 97 233 231 29 112 180 126 67 39 10 13 353 338 27 98 90 64 44 46 45 130 154 170 213 248 242 256 249 275 7 112
154 200 211 127 120 125 123 106 45 18 16 352 338 351 60 104 78 66 46 35 44 59 210 176 217 233 160 163 174 257 131 152
81 349 106 118 118 120 119 90 54 51 29 357 20 79 112 98 77 50 50 38 53 69 115 122 126 143 148 160 151 123 139 161
63 56 95 94 106 114 98 69 128 70 49 60 69 92 65 90 76 67 63 75 89 96 93 95 98 229 221 226 159 180 173 180
192 191 136 140 128 111 25 98 103 79 66 68 54 71 81 91 81 77 86 98 86 83 80 78 71 56 38 217 223 149 158 182
141 130 123 125 149 93 76 122 99 85 76 71 70 70 69 93 98 106 101 69 73 75 74 75 70 71 67 83 100 144 202 155
Height
1467 1463 1468 1483 1499 1493 1532 1540 1547 1535 1515 1492 1486 1485 1484 1484 1482 1484 1487 1491 1498 1503 1506 1509 1513 1517 1520 1523 1525 1526 1528 1532
1460 1461 1465 1471 1478 1507 1528 1548 1551 1539 1533 1522 1493 1490 1483 1480 1483 1490 1485 1489 1494 1499 1503 1507 1510 1513 1517 1521 1522 1525 1527 1529
1469 1473 1477 1480 1489 1500 1511 1527 1553 1554 1534 1484 1481 1482 1482 1474 1475 1483 1482 1486 1491 1497 1503 1506 1510 1513 1517 1521 1523 1525 1528 1531
1481 1465 1461 1465 1478 1492 1521 1519 1529 1533 1521 1466 1471 1470 1475 1475 1477 1483 1483 1486 1490 1496 1501 1506 1509 1513 1517 1520 1524 1527 1531 1533
1498 1484 1469 1473 1467 1478 1494 1506 1517 1529 1512 1465 1462 1466 1469 1472 1478 1481 1483 1486 1490 1495 1500 1505 1508 1510 1513 1519 1523 1528 1531 1534
1517 1500 1484 1486 1472 1469 1487 1511 1509 1507 1485 1469 1466 1462 1461 1469 1472 1475 1478 1483 1486 1491 1494 1498 1500 1502 1506 1509 1513 1516 1520 1525
1485 1480 1474 1472 1470 1471 1479 1482 1489 1485 1485 1470 1460 1459 1458 1459 1467 1473 1477 1481 1483 1485 1488 1492 1495 1497 1500 1502 1506 1510 1514 1519
1479 1475 1476 1475 1471 1469 1468 1468 1470 1477 1480 1467 1465 1464 1466 1468 1469 1472 1474 1476 1478 1480 1484 1487 1486 1490 1494 1498 1501 1503 1504 1509
1493 1482 1478 1494 1478 1477 1479 1476 1475 1491 1478 1466 1467 1468 1471 1474 1477 1475 1473 1472 1473 1474 1475 1476 1477 1479 1484 1487 1491 1497 1502 1507
1499 1488 1512 1486 1471 1469 1479 1482 1479 1478 1476 1473 1473 1473 1474 1477 1476 1477 1476 1477 1476 1475 1473 1470 1475 1487 1498 1501 1506 1501 1495 1499
1499 1507 1489 1479 1474 1472 1483 1494 1481 1480 1478 1476 1474 1473 1474 1476 1477 1479 1479 1478 1475 1474 1473 1477 1481 1484 1487 1489 1491 1503 1502 1512
1496 1498 1507 1485 1467 1468 1468 1504 1483 1481 1480 1478 1477 1489 1482 1479 1477 1477 1475 1472 1471 1470 1470 1475 1482 1483 1487 1487 1492 1480 1486 1483
1494 1495 1489 1470 1467 1464 1490 1504 1482 1481 1481 1482 1484 1485 1483 1482 1478 1479 1478 1474 1472 1469 1466 1470 1473 1473 1476 1473 1485 1488 1493 1440
1492 1499 1499 1467 1467 1481 1481 1479 1479 1480 1481 1482 1482 1481 1482 1481 1479 1479 1477 1477 1475 1476 1473 1473 1473 1473 1466 1473 1477 1470 1470 1446
1475 1481 1465 1465 1467 1473 1475 1477 1478 1480 1481 1481 1480 1481 1482 1483 1482 1480 1478 1478 1477 1475 1474 1475 1474 1473 1477 1482 1480 1480 1464 1468
1467 1470 1467 1469 1471 1472 1475 1477 1479 1480 1481 1480 1480 1481 1483 1485 1484 1485 1483 1481 1479 1476 1476 1477 1479 1479 1480 1481 1480 1478 1479 1482
1474 1472 1471 1472 1472 1474 1476 1477 1480 1481 1482 1483 1483 1483 1485 1487 1487 1487 1486 1485 1484 1484 1484 1483 1483 1481 1483 1484 1482 1479 1485 1492
1476 1468 1469 1472 1474 1475 1476 1479 1481 1482 1483 1485 1484 1485 1486 1486 1490 1487 1488 1488 1488 1488 1488 1487 1488 1486 1486 1485 1485 1485 1489 1493
1463 1467 1469 1472 1475 1475 1476 1481 1482 1482 1486 1487 1487 1488 1488 1488 1492 1492 1493 1490 1492 1491 1491 1491 1488 1487 1487 1486 1489 1490 1493 1493